TimeCDT,TemperatureF,Dew PointF,Humidity,Sea Level PressureIn,VisibilityMPH,Wind Direction,Wind SpeedMPH,Gust SpeedMPH,PrecipitationIn,Events,Conditions,WindDirDegrees,DateUTC
12:51 AM,78.1,66.9,68,29.83,10.0,NNW,9.2,-,N/A,,Clear,340,2013-09-02 05:51:00
1:51 AM,75.0,63.0,66,29.86,10.0,NNW,6.9,-,N/A,,Partly Cloudy,340,2013-09-02 06:51:00
2:51 AM,73.0,62.1,68,29.85,10.0,NNW,6.9,-,N/A,,Scattered Clouds,340,2013-09-02 07:51:00
3:51 AM,73.0,61.0,66,29.85,10.0,NNW,3.5,-,N/A,,Scattered Clouds,330,2013-09-02 08:51:00
4:51 AM,70.0,62.1,76,29.86,10.0,NNW,4.6,-,N/A,,Scattered Clouds,340,2013-09-02 09:51:00
5:51 AM,71.1,60.1,68,29.88,10.0,NNW,4.6,-,N/A,,Mostly Cloudy,330,2013-09-02 10:51:00
6:51 AM,69.1,61.0,75,29.90,10.0,NW,4.6,-,N/A,,Scattered Clouds,320,2013-09-02 11:51:00
7:51 AM,71.1,61.0,70,29.91,10.0,NNW,8.1,-,N/A,,Partly Cloudy,330,2013-09-02 12:51:00
8:51 AM,73.0,62.1,68,29.93,10.0,North,10.4,-,N/A,,Partly Cloudy,350,2013-09-02 13:51:00
9:51 AM,75.9,62.1,62,29.94,10.0,NW,10.4,-,N/A,,Clear,320,2013-09-02 14:51:00
10:51 AM,79.0,62.1,56,29.94,10.0,NNW,8.1,-,N/A,,Partly Cloudy,340,2013-09-02 15:51:00
11:51 AM,82.0,61.0,49,29.94,10.0,NW,8.1,-,N/A,,Partly Cloudy,310,2013-09-02 16:51:00
12:51 PM,82.0,60.1,47,29.94,10.0,North,9.2,19.6,N/A,,Partly Cloudy,360,2013-09-02 17:51:00
1:51 PM,82.9,61.0,47,29.93,10.0,WNW,9.2,-,N/A,,Partly Cloudy,290,2013-09-02 18:51:00
2:51 PM,84.0,61.0,46,29.91,10.0,Variable,6.9,-,N/A,,Partly Cloudy,0,2013-09-02 19:51:00
3:51 PM,82.9,62.1,49,29.91,10.0,North,6.9,16.1,N/A,,Partly Cloudy,350,2013-09-02 20:51:00
4:51 PM,82.9,60.1,46,29.90,10.0,North,10.4,-,N/A,,Partly Cloudy,350,2013-09-02 21:51:00
5:51 PM,82.0,60.1,47,29.90,10.0,North,9.2,-,N/A,,Partly Cloudy,360,2013-09-02 22:51:00
6:51 PM,80.1,59.0,48,29.90,10.0,NNW,5.8,-,N/A,,Partly Cloudy,340,2013-09-02 23:51:00
7:51 PM,75.9,61.0,60,29.92,10.0,NNW,3.5,-,N/A,,Partly Cloudy,330,2013-09-03 00:51:00
8:51 PM,75.0,61.0,62,29.94,10.0,NNW,3.5,-,N/A,,Partly Cloudy,330,2013-09-03 01:51:00
9:51 PM,73.0,60.1,64,29.95,10.0,NNW,4.6,-,N/A,,Clear,340,2013-09-03 02:51:00
10:51 PM,73.9,59.0,59,29.95,10.0,NNE,5.8,-,N/A,,Clear,30,2013-09-03 03:51:00
11:51 PM,72.0,57.0,59,29.94,10.0,NE,8.1,-,N/A,,Clear,40,2013-09-03 04:51:00